Temperature
16 16 16 16 16 15 15 15 15 15 15 15 15 15 15 15 15 16 16 16 16 16 16 16 16 16 16 16 16 16 16 16 16 16 16 16 16 16 16 16 16 16 16
16 16 16 16 15 15 15 15 15 15 15 15 15 15 15 15 15 15 15 16 16 15 15 16 16 16 16 16 16 16 16 16 16 16 16 16 16 16 16 16 16 16 16
16 16 15 15 15 15 15 15 15 15 15 15 15 15 15 15 15 15 15 15 15 15 15 15 16 16 16 16 16 16 16 16 16 16 16 16 16 16 16 16 16 16 16
16 16 15 15 15 15 15 15 15 15 15 15 15 15 15 15 15 15 15 15 15 15 15 15 15 16 16 16 16 16 16 16 15 15 16 15 15 16 16 16 16 16 16
16 15 15 15 15 15 15 15 15 15 15 15 15 15 15 15 15 15 15 15 15 15 15 15 15 15 15 15 15 15 15 15 15 15 15 15 15 15 15 15 15 15 15
16 15 15 15 15 15 15 15 15 15 15 15 15 15 15 15 15 15 15 15 15 15 15 15 15 15 15 15 15 15 15 15 15 15 15 15 15 15 15 15 15 15 15
15 15 15 15 15 15 15 15 15 15 15 15 15 15 15 14 15 15 15 15 15 15 15 15 15 15 15 15 15 15 15 15 15 15 15 15 15 15 15 15 15 15 15
15 15 15 15 15 15 15 15 15 15 15 15 15 15 15 14 14 14 14 14 15 15 15 15 15 15 15 15 15 15 15 14 14 14 14 14 14 14 14 14 14 14 14
15 15 15 15 15 15 15 15 15 15 15 15 15 15 15 14 14 14 14 14 14 14 14 14 14 14 14 14 14 14 14 14 14 14 14 14 14 14 14 14 14 14 14
15 15 15 15 15 15 15 15 15 15 15 15 15 15 15 15 14 14 14 14 14 14 14 14 14 14 14 14 14 14 14 14 14 14 14 14 14 14 14 14 14 14 14
15 15 15 15 15 15 15 15 15 15 15 15 15 15 15 15 15 14 14 14 14 14 14 14 14 14 14 14 14 14 14 14 14 14 14 14 14 14 14 14 13 13 13
15 15 15 15 15 15 15 15 15 15 15 15 15 15 15 15 15 15 14 14 14 13 13 13 14 14 14 14 14 14 14 14 14 14 14 14 14 14 14 13 13 13 13
15 15 15 15 15 15 15 15 15 15 15 15 15 15 15 15 15 15 14 14 14 13 13 13 13 13 13 13 13 13 13 13 13 13 13 13 13 13 13 13 13 13 13
15 15 15 15 15 15 15 15 15 15 15 15 15 15 15 15 15 15 14 14 14 13 13 13 13 13 13 13 13 13 13 13 13 13 13 13 13 13 13 13 13 13 13
15 15 15 15 15 15 15 15 15 15 15 15 15 15 15 14 14 14 14 14 14 13 13 13 12 12 12 13 13 13 13 13 13 13 13 12 12 12 12 12 12 12 12
15 15 15 15 15 15 15 15 15 15 15 15 14 14 14 14 14 14 14 14 14 14 13 13 12 12 12 12 12 12 12 12 12 12 12 12 12 12 12 12 12 12 12
15 15 15 15 15 15 15 15 15 15 14 14 14 14 14 14 14 14 14 14 14 13 13 13 12 12 12 12 12 12 12 12 12 12 12 11 11 11 11 11 11 11 11
15 15 15 15 15 15 15 15 14 14 14 14 14 14 14 14 14 13 13 13 13 13 13 13 12 12 12 12 12 12 12 12 11 11 11 11 11 11 11 10 10 10 10
15 15 15 15 15 15 15 14 14 14 14 14 14 14 14 13 13 13 13 13 13 13 13 13 12 12 12 12 12 11 11 11 11 11 10 10 10 10 10 10 10 10 10
15 15 15 15 15 15 15 14 14 14 14 14 14 13 13 13 13 13 13 13 13 13 12 12 12 12 12 11 11 11 11 11 11 10 10 10 10 10 9 9 9 9 9
15 15 15 15 15 15 14 14 14 14 14 14 14 13 13 13 13 13 13 13 13 13 12 12 12 12 11 11 11 11 10 10 10 10 10 9 9 9 9 9 9 8 8
15 15 15 15 15 15 14 14 14 14 14 14 14 13 13 13 13 13 13 13 12 12 12 12 12 11 11 11 10 10 10 10 10 10 9 9 9 9 8 8 8 8 8
15 15 15 15 15 14 14 14 14 14 14 14 13 13 13 13 13 13 12 12 12 12 12 11 11 11 11 11 10 10 10 10 9 9 9 9 9 8 8 8 8 7 7
15 15 15 15 15 14 14 14 14 14 14 13 13 13 13 13 13 12 12 12 12 12 11 11 11 11 11 10 10 10 10 9 9 9 9 8 8 8 8 8 7 7 7
15 15 15 15 15 14 14 14 14 14 14 13 13 13 13 13 12 12 12 12 12 12 11 11 11 11 10 10 10 10 9 9 9 9 8 8 8 8 8 7 7 7 7
15 15 15 15 14 14 14 14 14 14 14 13 13 13 13 12 12 12 12 12 12 11 11 11 11 10 10 10 10 9 9 9 8 8 8 7 7 7 7 7 7 6 6
Wind_Speed
2 2 1 1 2 4 4 4 5 6 6 6 6 7 6 6 7 7 7 8 8 8 7 7 7 6 6 6 6 7 7 8 8 8 8 7 8 8 7 7 6 6 5
3 3 2 2 3 5 5 5 5 5 5 5 5 6 6 6 7 7 7 8 9 8 8 8 8 7 6 6 7 7 8 8 8 8 8 8 8 8 8 7 7 6 6
5 4 3 3 3 6 7 6 6 5 5 5 5 5 5 6 6 6 6 7 7 8 9 9 10 9 8 8 9 9 9 9 9 8 8 8 8 8 7 7 6 6 6
7 5 4 3 5 6 5 4 4 5 5 4 4 3 4 4 5 6 6 6 6 6 8 9 10 11 11 10 10 10 9 9 9 9 9 9 9 8 8 8 7 7 6
8 6 4 4 6 5 4 3 4 4 4 4 3 4 4 3 3 5 5 6 6 7 7 8 10 11 11 11 10 10 10 9 9 9 9 9 9 9 9 9 8 8 7
7 7 5 5 6 4 4 4 4 4 3 3 4 5 4 4 4 5 4 5 6 7 8 8 9 9 11 11 11 10 10 9 9 9 9 9 9 9 9 9 8 8 8
7 6 4 4 4 4 3 3 3 4 4 3 4 4 5 5 5 4 4 5 5 6 7 7 8 9 9 11 11 11 10 10 10 10 10 10 10 10 9 9 8 8 8
6 6 5 4 4 4 4 4 3 3 2 2 3 3 3 4 4 5 4 4 5 5 5 6 7 8 8 8 10 11 11 10 11 10 10 10 10 10 9 9 9 9 9
6 6 5 4 4 4 3 3 3 4 2 2 2 3 3 2 1 4 4 5 4 4 4 4 6 6 7 7 7 9 10 10 10 10 10 10 9 9 9 9 10 10 9
6 6 6 5 4 4 4 2 3 3 3 2 2 2 2 3 3 1 3 4 4 4 4 4 5 5 6 6 7 9 9 9 9 9 10 10 10 10 10 10 10 10 9
4 6 6 5 4 3 4 4 4 4 3 2 2 2 3 3 3 3 1 2 3 3 3 3 3 4 5 6 6 9 10 10 10 10 10 11 11 11 11 11 10 10 10
2 3 5 5 4 3 3 3 3 4 3 3 3 2 2 2 2 3 2 1 1 2 3 3 3 3 4 5 6 8 9 10 11 11 11 12 12 12 11 11 11 10 10
1 1 3 3 2 3 3 3 3 3 3 3 3 2 2 2 2 3 4 2 1 1 2 3 3 3 3 4 5 6 7 8 8 9 10 11 11 11 11 11 12 11 11
2 2 3 3 3 4 4 4 3 2 2 3 3 3 2 2 2 3 3 4 2 2 2 2 2 3 3 3 4 5 5 6 7 7 8 9 10 11 11 12 12 12 11
3 3 3 3 3 4 4 4 3 2 3 3 3 3 3 2 2 2 3 4 4 2 1 2 1 2 3 3 3 4 4 6 6 6 7 7 8 9 10 11 11 11 11
3 4 3 3 2 2 3 4 3 2 4 3 2 3 3 2 2 2 2 2 3 4 2 1 1 1 2 2 3 3 4 5 6 6 6 7 7 8 9 10 10 10 10
4 4 3 3 3 2 2 3 2 3 3 3 3 3 2 2 2 2 2 3 3 3 3 1 1 1 1 1 3 3 4 4 5 6 6 6 6 7 8 8 9 9 9
4 4 3 3 3 3 2 3 2 3 3 3 2 3 2 2 3 2 2 3 2 2 4 2 1 1 1 1 1 2 3 4 4 5 5 6 6 7 7 8 8 8 8
4 3 4 4 3 3 3 3 3 3 3 2 2 3 2 3 2 2 2 2 2 2 3 3 0 1 1 1 1 2 3 3 4 4 5 5 6 6 7 7 7 7 7
5 4 4 4 3 3 3 3 3 3 2 2 2 2 2 3 3 2 2 2 2 2 2 2 1 1 1 1 1 1 2 3 3 4 5 5 6 6 6 6 7 7 6
5 5 4 3 3 3 4 4 4 4 3 2 1 1 2 3 3 3 3 3 3 2 2 2 1 1 1 1 1 1 1 2 3 2 2 3 4 5 6 6 6 7 7
4 4 4 4 4 3 5 7 6 4 3 3 2 1 0 1 2 3 3 4 5 4 3 2 1 1 2 2 1 1 0 1 3 3 1 3 2 3 5 5 6 7 7
5 4 4 5 4 5 6 7 8 5 4 3 3 2 1 1 2 1 2 3 2 2 4 4 3 3 3 3 2 1 1 2 3 3 0 3 2 3 4 6 6 7 7
5 5 5 5 5 5 7 7 7 5 3 3 3 3 2 1 1 3 2 2 1 1 1 2 3 4 4 3 4 3 3 2 2 2 1 1 3 3 4 6 7 7 8
5 5 5 6 5 5 7 7 7 4 3 2 2 3 3 2 3 4 4 2 0 2 2 0 1 2 2 2 2 2 1 1 2 3 1 1 2 3 3 3 5 8 8
6 5 5 5 6 6 7 8 8 4 3 2 1 2 3 3 4 5 4 4 2 2 1 2 3 3 3 3 1 2 3 2 1 2 2 1 1 2 3 3 3 6 7
Wind_Direction
109 125 134 76 67 82 83 77 76 75 74 71 81 88 80 79 81 74 68 69 69 69 70 67 66 67 70 75 77 74 71 65 60 60 56 54 55 57 59 58 54 55 47
106 105 91 78 80 99 98 92 88 82 76 77 71 76 80 84 86 79 70 67 67 67 64 61 58 57 71 80 78 73 70 65 63 59 57 56 56 56 54 54 52 49 43
94 95 87 77 90 101 95 87 81 80 79 73 64 64 73 75 78 78 72 67 62 60 58 57 59 61 73 78 76 72 67 65 61 60 59 56 54 54 49 48 47 46 41
88 88 86 81 91 92 91 85 76 75 69 68 67 56 58 65 70 82 81 76 69 61 56 57 61 63 68 72 73 70 70 68 67 65 62 58 54 52 50 49 45 42 35
85 90 88 90 90 85 80 89 74 86 85 71 72 61 48 51 59 79 75 75 71 68 62 60 62 61 64 66 69 70 69 65 64 63 61 57 53 50 48 46 41 36 33
83 87 89 89 90 82 70 77 80 68 82 83 77 60 41 37 48 58 67 72 71 71 70 67 63 58 59 62 65 65 64 61 61 61 60 56 51 48 47 45 40 35 32
83 90 90 84 83 87 88 91 87 73 58 63 74 49 27 32 39 40 51 65 63 69 74 71 66 66 58 55 57 60 58 57 60 62 61 57 53 50 47 44 39 36 33
84 95 92 88 89 94 81 78 90 85 49 52 101 91 44 14 10 23 36 59 52 56 61 71 70 65 61 55 53 55 55 57 60 60 60 57 52 47 42 38 38 37 37
86 89 95 97 93 99 101 94 103 107 89 30 71 126 129 169 343 0 25 41 45 49 48 68 71 65 61 55 50 49 51 52 57 57 56 52 47 44 41 38 37 39 39
84 91 95 94 94 93 97 93 96 102 107 67 32 51 118 146 132 62 1 15 32 46 38 60 68 65 64 62 55 51 47 47 51 51 50 48 45 43 41 38 35 35 36
68 85 95 94 94 93 93 87 87 87 97 103 84 72 69 64 84 122 104 353 13 17 28 44 61 62 64 64 61 53 50 50 50 49 47 44 41 38 38 35 32 29 29
37 70 95 95 97 96 92 95 95 93 92 90 86 85 109 108 112 115 129 108 19 354 23 33 42 48 57 56 57 55 54 52 51 49 46 42 38 36 33 30 28 26 25
102 87 92 99 97 102 105 100 92 91 93 92 94 91 95 116 136 129 123 123 71 356 15 21 16 27 41 45 46 52 56 51 49 47 44 39 36 33 30 27 24 24 25
177 162 121 112 108 101 102 97 87 85 87 90 93 93 84 77 106 128 139 132 92 23 20 349 355 10 18 39 38 51 46 42 42 41 38 35 34 31 29 26 23 24 26
162 144 126 116 108 100 100 98 88 82 89 85 85 85 84 73 84 96 118 136 138 132 314 307 346 346 8 36 29 48 43 36 37 36 35 33 31 30 29 27 25 28 30
146 139 127 128 120 105 103 98 89 81 85 74 85 87 75 68 71 81 100 105 125 142 163 261 263 285 31 37 19 31 29 26 22 27 25 26 28 29 29 28 26 25 27
146 145 146 140 139 131 116 106 100 94 91 74 76 94 81 74 74 71 79 87 97 119 132 307 338 6 37 35 14 14 16 16 11 20 17 18 20 20 21 22 22 22 23
153 148 145 141 149 152 146 131 122 104 110 108 99 96 81 88 77 69 81 90 98 116 134 139 331 344 313 281 333 359 8 11 7 11 13 15 14 17 20 19 18 17 18
159 153 143 150 161 165 159 154 141 126 128 131 132 126 120 109 94 85 91 99 99 97 113 134 192 320 326 335 3 1 10 1 5 10 8 6 10 10 7 8 9 10 10
165 167 163 169 171 165 159 152 141 133 125 122 136 141 139 142 154 142 122 129 122 97 91 102 68 347 333 337 37 10 351 346 342 1 3 4 3 359 355 356 358 1 2
176 172 164 173 171 166 172 165 154 147 139 126 100 126 151 153 158 154 145 156 139 124 112 103 71 2 335 346 309 287 318 324 325 352 348 347 353 355 346 345 350 355 355
174 166 168 176 183 188 172 170 158 152 153 147 142 126 104 116 127 135 136 150 154 153 161 154 185 229 267 258 256 243 256 359 319 318 353 317 354 331 333 339 344 349 351
178 178 180 177 188 196 175 165 161 152 154 165 175 177 142 107 107 111 100 91 109 134 159 165 183 223 234 230 207 235 224 220 248 274 342 303 318 308 317 334 340 344 348
178 183 188 186 185 198 185 174 163 152 155 173 182 177 177 225 178 151 132 99 15 311 205 166 196 224 225 219 198 203 211 229 281 301 145 271 305 295 313 325 334 342 345
181 187 183 181 185 203 195 185 167 152 163 203 209 184 183 208 202 163 140 150 292 318 3 271 244 258 273 262 192 129 89 65 312 301 287 190 293 302 304 309 328 342 345
184 182 185 191 191 202 201 192 170 156 169 206 241 220 204 204 206 175 162 167 198 261 308 16 16 10 14 9 16 160 183 184 228 286 279 188 285 337 323 304 316 336 342
Height
1546 1546 1545 1545 1545 1545 1545 1544 1544 1544 1543 1543 1543 1543 1543 1542 1542 1542 1541 1541 1540 1539 1538 1538 1537 1536 1535 1535 1535 1535 1535 1535 1535 1534 1534 1533 1532 1532 1531 1531 1530 1530 1530
1547 1547 1546 1546 1546 1546 1546 1546 1545 1545 1545 1545 1545 1545 1544 1544 1543 1543 1542 1542 1541 1540 1539 1538 1536 1534 1533 1534 1535 1536 1536 1536 1535 1535 1534 1533 1533 1532 1532 1531 1531 1531 1530
1548 1548 1547 1547 1547 1547 1547 1547 1547 1546 1546 1546 1546 1546 1546 1545 1545 1544 1544 1543 1542 1541 1540 1539 1537 1534 1532 1534 1536 1536 1536 1536 1536 1535 1535 1534 1533 1533 1532 1532 1531 1531 1530
1549 1548 1548 1548 1548 1548 1548 1548 1548 1548 1547 1547 1547 1547 1547 1547 1547 1546 1545 1545 1544 1543 1542 1541 1539 1536 1535 1536 1537 1537 1537 1537 1536 1536 1535 1534 1534 1533 1532 1532 1531 1531 1530
1549 1549 1549 1549 1549 1549 1549 1549 1549 1549 1549 1549 1549 1549 1549 1549 1548 1548 1547 1546 1545 1545 1543 1542 1541 1540 1539 1539 1539 1539 1539 1538 1538 1537 1536 1535 1535 1534 1533 1532 1531 1531 1530
1550 1550 1550 1550 1550 1550 1550 1550 1550 1550 1550 1550 1550 1550 1550 1550 1550 1550 1549 1548 1547 1546 1545 1544 1543 1542 1542 1541 1541 1540 1540 1539 1538 1538 1537 1536 1535 1534 1533 1532 1532 1531 1530
1550 1551 1551 1550 1551 1551 1551 1551 1551 1551 1551 1551 1551 1551 1552 1552 1552 1551 1551 1550 1549 1548 1547 1546 1545 1544 1544 1543 1543 1542 1541 1540 1540 1539 1538 1537 1536 1535 1534 1533 1532 1531 1530
1551 1551 1551 1551 1551 1551 1551 1552 1552 1551 1551 1552 1552 1552 1553 1554 1553 1553 1552 1552 1551 1550 1549 1548 1547 1547 1546 1545 1545 1544 1543 1542 1541 1540 1539 1538 1537 1536 1535 1533 1532 1531 1530
1552 1552 1552 1552 1552 1552 1552 1552 1552 1552 1552 1553 1553 1553 1553 1554 1554 1555 1554 1553 1553 1552 1551 1550 1549 1549 1548 1547 1547 1546 1545 1544 1542 1541 1540 1539 1538 1537 1535 1534 1533 1531 1529
1553 1553 1553 1553 1553 1553 1553 1553 1553 1553 1553 1553 1553 1553 1554 1554 1554 1555 1556 1555 1554 1553 1552 1552 1551 1551 1550 1549 1549 1548 1547 1545 1544 1543 1541 1540 1539 1537 1536 1534 1533 1531 1529
1553 1553 1553 1553 1553 1553 1553 1553 1553 1553 1553 1553 1553 1554 1554 1554 1554 1555 1555 1556 1556 1555 1554 1554 1553 1552 1552 1551 1550 1549 1548 1547 1545 1544 1543 1541 1539 1538 1536 1534 1532 1531 1529
1554 1554 1554 1554 1554 1554 1554 1554 1554 1554 1554 1554 1554 1554 1554 1554 1555 1555 1555 1556 1556 1556 1556 1555 1554 1554 1553 1552 1551 1550 1549 1548 1546 1545 1544 1542 1540 1538 1536 1534 1532 1530 1528
1554 1554 1554 1554 1555 1555 1555 1555 1555 1555 1555 1555 1555 1555 1555 1555 1555 1556 1556 1556 1556 1557 1557 1556 1556 1555 1554 1553 1552 1551 1550 1549 1547 1546 1544 1543 1541 1539 1537 1534 1532 1529 1527
1554 1554 1555 1555 1555 1555 1555 1555 1556 1556 1556 1555 1555 1555 1555 1555 1556 1556 1556 1556 1557 1557 1557 1557 1556 1556 1555 1554 1553 1552 1551 1549 1548 1546 1545 1543 1541 1539 1537 1534 1532 1529 1526
1554 1554 1555 1555 1555 1556 1556 1556 1556 1556 1556 1556 1556 1556 1556 1556 1556 1556 1556 1557 1557 1557 1557 1557 1557 1556 1555 1555 1554 1552 1551 1550 1548 1547 1545 1543 1541 1539 1537 1534 1531 1528 1526
1554 1554 1554 1555 1555 1556 1556 1556 1557 1557 1557 1557 1557 1557 1556 1556 1556 1556 1557 1557 1557 1557 1557 1557 1556 1556 1555 1555 1554 1552 1551 1550 1548 1547 1545 1543 1541 1539 1537 1534 1531 1529 1526
1553 1554 1555 1555 1555 1556 1556 1557 1557 1557 1557 1557 1557 1557 1557 1557 1556 1556 1556 1556 1556 1556 1556 1556 1556 1556 1555 1554 1553 1552 1551 1549 1548 1546 1544 1543 1541 1538 1536 1534 1531 1529 1527
1553 1554 1554 1555 1555 1556 1556 1557 1557 1557 1557 1557 1557 1557 1557 1557 1556 1556 1556 1556 1556 1556 1556 1555 1555 1555 1554 1554 1553 1551 1550 1549 1547 1545 1544 1542 1540 1538 1536 1533 1531 1529 1527
1552 1553 1554 1554 1555 1556 1556 1557 1557 1557 1557 1557 1557 1557 1557 1556 1556 1556 1556 1556 1556 1556 1555 1555 1554 1554 1553 1553 1552 1550 1549 1548 1546 1545 1543 1541 1539 1537 1535 1533 1530 1528 1526
1551 1552 1553 1554 1554 1555 1556 1556 1556 1556 1557 1557 1557 1557 1557 1556 1556 1556 1556 1556 1555 1555 1555 1554 1553 1553 1552 1551 1550 1549 1547 1546 1545 1543 1541 1539 1538 1536 1534 1532 1529 1527 1525
1550 1551 1552 1553 1554 1554 1555 1555 1556 1556 1556 1556 1556 1556 1556 1556 1556 1555 1555 1555 1555 1554 1553 1553 1552 1551 1551 1550 1549 1547 1546 1545 1543 1542 1540 1538 1536 1534 1532 1530 1528 1526 1524
1549 1550 1551 1552 1553 1553 1554 1555 1555 1555 1555 1556 1556 1555 1555 1555 1555 1555 1554 1554 1554 1553 1552 1551 1551 1550 1549 1548 1547 1546 1544 1542 1541 1540 1538 1536 1534 1532 1530 1528 1526 1524 1522
1547 1548 1549 1550 1551 1552 1553 1553 1554 1554 1554 1555 1555 1554 1554 1554 1554 1553 1553 1553 1552 1552 1551 1551 1549 1548 1547 1546 1545 1544 1542 1541 1539 1538 1536 1533 1532 1530 1528 1526 1524 1522 1520
1545 1546 1548 1549 1550 1551 1551 1552 1553 1553 1553 1553 1553 1553 1553 1552 1552 1552 1551 1551 1551 1550 1549 1548 1548 1546 1546 1544 1543 1542 1540 1539 1537 1536 1534 1531 1529 1528 1526 1524 1522 1520 1518
1543 1544 1545 1547 1548 1549 1550 1550 1551 1551 1551 1551 1551 1551 1551 1550 1550 1550 1550 1549 1548 1548 1547 1546 1546 1544 1543 1542 1541 1539 1538 1536 1534 1533 1531 1529 1527 1525 1523 1521 1520 1518 1516
1540 1542 1543 1544 1545 1546 1548 1548 1549 1549 1549 1549 1549 1549 1549 1548 1548 1548 1547 1547 1546 1546 1545 1544 1543 1542 1541 1540 1538 1537 1535 1533 1531 1530 1528 1527 1524 1523 1520 1518 1517 1515 1513